Regional Weather Roundup
Issued by NWS

Home | Current Version | Previous Version | Graphics & Text | Print | Product List | Glossary Off
Versions: 1 2 3 4 5 6 7 8 9 10 11 12 13 14 15 16 17 18 19 20 21 22 23 24 25 26 27 28 29 30 31 32 33 34 35 36 37 38 39 40 41 42 43 44 45 46 47 48 49 50

000
ASUS43 KDTX 171010
RWRMI
MICHIGAN HOURLY REGIONAL WEATHER ROUNDUP
NATIONAL WEATHER SERVICE DETROIT/PONTIAC MI
500 AM EST TUE JAN 17 2017

NOTE: "FAIR" INDICATES FEW OR NO CLOUDS BELOW 12,000 FEET WITH NO
SIGNIFICANT WEATHER AND/OR OBSTRUCTION TO VISIBILITY.

MIZ047>049-052>055-059>063-066>070-074>076-081>083-171100-
SOUTHEAST LOWER MICHIGAN

CITY           SKY/WX    TMP DP  RH WIND       PRES   REMARKS
ADRIAN         LGT RAIN  33  33 100 E8        29.88F VSB 1/2 WCI  26
ALMA           MIX PCPN  33  32  98 E8        29.88F WCI  25
ANN ARBOR      CLOUDY    33  33 100 NE6       29.88F FOG     WCI  28
BAD AXE        FLURRIES  32  32  97 SE8G17    29.94F WCI  25
CARO           LGT SNOW  33  32  96 E12       29.90F WCI  24
DETROIT CITY   LGT RAIN  34  34 100 E12         N/A  FOG     WCI  25
DETROIT        LGT RAIN  35  34  96 NE5       29.91F VSB 1   WCI  31
FLINT          LGT RAIN  34  32  92 SE12      29.88F WCI  25
GROSSE ILE     LGT RAIN  35  35  98 E3        29.89F
HILLSDALE      SNOW      34  34 100 E12       29.82F VSB 1/4 WCI  25
HOWELL         CLOUDY    33  32  96 SE7       29.86F WCI  27

CITY           SKY/WX    TMP DP  RH WIND       PRES   REMARKS
JACKSON        FOG       34  34 100 SE10      29.84F VSB 3/4 WCI  26
LAMBERTVILLE   FOG       35  34  94 E3        29.88F VSB 1/2
LANSING        LGT RAIN  34  32  92 E9        29.85F WCI  27
LAPEER         LGT SNOW  33  32  99 SE7       29.92F WCI  26
MASON          LGT RAIN  34  33  98 SE7       29.84F WCI  28
MONROE         CLOUDY    36  36 100 E7        29.89F FOG     WCI  30
MT. CLEMENS    FRZ RAIN  32  32 100 E3        29.91F
PONTIAC        MIX PCPN  32  30  92 E9        29.88F FOG     WCI  24
PORT HOPE        N/A     34  33  96 SE18      29.95F WCI  23
PORT HURON     MIX PCPN  32  32 100 E6        29.95F WCI  26
TRI CITIES     RAIN      33  33 100 E10       29.91F FOG     WCI  25
MIDLAND        MIX PCPN  33  32  96 E6        29.91F WCI  28
TROY           MIX PCPN  33  31  96 E5        29.94F WCI  28
SAGINAW HB     LGT SNOW  34  32  93 E7        29.90F WCI  28
$$
MIZ043>046-050>051-056>058-064>065-071>073-077>080-171100-
SOUTHWEST LOWER MICHIGAN

CITY           SKY/WX    TMP DP  RH WIND       PRES   REMARKS
BATTLE CREEK   FOG       38  38 100 SE9       29.80F VSB 3/4 WCI  31
BENTON HARBOR  LGT RAIN  46  44  93 SE9       29.75F
BIG RAPIDS     MIX PCPN  33  32  96 E9        29.85F WCI  25
COLDWATER      DRZL/FOG  39  39 100 SE9       29.80F VSB 1/2 WCI  33
FREMONT        LGT SNOW  34  34 100 E13G21    29.81F WCI  25
HOLLAND        LGT RAIN  36  35  96 E7        29.79F WCI  30
GRAND RAPIDS   LGT RAIN  34  34 100 E16       29.81F FOG     WCI  24
IONIA          CLOUDY    32  32 100 E13       29.82F FOG     WCI  22
KALAMAZOO      FOG       41  39  93 SE9       29.78F VSB 1/2
LUDINGTON      DRIZZLE   35  35  99 E12       29.82F WCI  27
MARSHALL       FOG       37  37  99 E9        29.81F VSB 1   WCI  30
MOUNT PLEASANT MIX PCPN  32  32  99 E7        29.88F WCI  26
MUSKEGON       LGT RAIN  36  34  92 E13       29.80F FOG     WCI  27
SOUTH HAVEN    LGT SNOW  42  41  99 SE5       29.77S
$$
MIZ016>042-171100-
NORTHERN LOWER MICHIGAN

CITY           SKY/WX    TMP DP  RH WIND       PRES   REMARKS
ALPENA         FRZ RAIN  32  30  92 E7        30.00F FOG     WCI  26
BEAVER ISLAND  MIX PCPN  32  27  80 E7        29.96F WCI  26
BELLAIRE       MIX PCPN  34  33  96 CALM      29.92F
CADILLAC       LGT SNOW  33  32  96 E9        29.85F WCI  25
CHARLEVOIX     RAIN      34  32  91 E7        29.96F WCI  28
FRANKFORT      CLOUDY    35  34  96 NE7       29.86F WCI  29
GAYLORD        LGT RAIN  33  29  85 NE7       29.91F FOG     WCI  27
GRAYLING       LGT SNOW  33  33  97 E8        29.93F WCI  26
HARBOR SPRINGS MIX PCPN  31  26  81 NE10      29.96F WCI  22
HOUGHTON LAKE  RAIN      33  32  96 E7        29.91F FOG     WCI  27
MANISTEE       LGT RAIN  35  34  96 E8        29.84F WCI  29
OSCODA         CLOUDY    34  33  96 E7        29.98F FOG     WCI  28
PELLSTON       MIX PCPN  27  23  85 CALM      29.98F
ROGERS CITY    CLOUDY    29  22  74 E5        30.02F WCI  24
TRAVERSE CITY  LGT RAIN  36  33  89 E6        29.89F WCI  31
$$
MIZ007>008-015-171100-
EASTERN UPPER MICHIGAN

CITY           SKY/WX    TMP DP  RH WIND       PRES   REMARKS
KINROSS        CLOUDY    25  24  96 E13       30.01F WCI  14
MACKINAC ISLAN CLOUDY    34  34 100 E13G21    29.99F WCI  25
NEWBERRY       CLOUDY    23  22  97 NE5       29.99F WCI  16
S. S. MARIE    CLOUDY    26  22  84 E7        30.03F WCI  18
$$
MIZ004>006-011>014-085-171100-
CENTRAL UPPER MICHIGAN

CITY           SKY/WX    TMP DP  RH WIND       PRES   REMARKS
MANISTIQUE     CLOUDY    27  27  97 NE5       29.97F WCI  22
ESCANABA       FLURRIES  30  28  93 N8        29.96F WCI  23
SAWYER-GWINN   PTCLDY    16  15  94 N3        29.97F
$$
MIZ001>003-009>011-084-171100-
WESTERN UPPER MICHIGAN

CITY           SKY/WX    TMP DP  RH WIND       PRES   REMARKS
IRON MOUNTAIN  LGT SNOW  25  20  81 N6        29.93F WCI  18
HOUGHTON       CLOUDY    31  27  85 E8        29.97F WCI  23
COPPER HARBOR    N/A     27  25  92 CALM      30.01S
IRONWOOD       CLOUDY    24  20  84 CALM      29.96F
$$

ABBREVIATIONS USED IN REMARKS
   TC - TEMPERATURE IN CELSIUS
  WCI - WIND CHILL INDEX
   HX - HEAT INDEX
  VSB - VISIBILITY





USA.gov is the U.S. government's official web portal to all federal, state and local government web resources and services.